ヒル彗星

385P/Hill (2019)

English version
Home page
Updated on November 3, 2020

---------------------------------------------------------------------

・ プロフィール

符号 385P/2019 P1
検出日 2019年8月2日
検出光度 20.4等
検出者 K. Sarneczky (Piszkesteto Station of Konkoly Observatory)

・ 写真集

・ 軌道要素

Epoch 2019 Oct. 4.0 TT = JDT 2458760.5                                          
T 2019 Sept. 14.78533 TT                                Bell                    
q   2.5676021            (2000.0)            P               Q                  
n   0.11105359     Peri.   44.32739     +0.74849299     -0.66297882             
a   4.2866133      Node   357.08080     +0.49896800     +0.57769180             
e   0.4010185      Incl.   16.82653     +0.43679421     +0.47616308             
P   8.88                                                                        
From 353 observations 2010 Oct. 1-2020 Jan. 13, mean residual 0".8.             

・ 光度変化

        m1 = 14.0 + 5 logΔ + 10.0 log r

---------------------------------------------------------------------

軌道要素はM.P.E.C. 2020-C98に掲載されたものです。
光度グラフはComet for Windowsで作成したものです。

---------------------------------------------------------------------

Copyright(C) Seiichi Yoshida (comet@aerith.net). All rights reserved.